DELTA 1 DEB, 40756

Orbit data source: Space-Track

DELTA 1 DEB, 40756 is space debris in SSO originally from a launch on Thu, 29 Jul 1976 UTC launched from the Air Force Western Test Range (AFWTR). Debris objects in space refer to the collection of defunct objects orbiting the Earth. Examples of debris include non-operational satellites, rocket bodies, and fragments generated from explosions, collisions, or faulty payload assembly.

Loading next visibility...
Identifier
40756, 1976-077FZ
Orbit
SSO
Country
Flag of USUS
Related business
Manufacturer
Unknown
Mission
Spacecraft
Bus & Motor
Unknown
Mass
Unknown
Launch date (UTC)
1976-07-29 (49 years ago)
Launch vehicle
Unknown
Launch site
Air Force Western Test Range (AFWTR)
Object type
Payload
Rocket body
Debris
Shape & HBR
Unknown shape, 0.1 m
Radar Cross Section
Small (<0.1 m²)

Expand to show TLE details & history
Last TLE update: 1 day ago

TLE from 1 day ago
0 DELTA 1 DEB
1 40756U 76077FZ  25288.69842831 -.00000026  00000-0  17396-3 0  9993
2 40756 102.5433 267.7977 0077487  87.1730  87.1069 12.25954840926576
Epoch: 2025-10-15T16:45Z
TLE epoch observation values (Epoch: 2025-10-15T16:45:44.205Z)
Latitude
4.64035°
Longitude
172.92446°
Altitude
1,566.105 km
Speed
7.086 km/s
True Right ascension
05h 55m 18s
True Declination
4° 36' 56"
Sunlit
Object was in daylight at epoch
Visualization orbit readout
Latitude
Unknown
Longitude
Unknown
Altitude
Unknown
Speed
Unknown
Apparent Right ascension
Unknown
Apparent Declination
Unknown
Sunlit
N/A
Visualization observer readout
Local Sidereal Time
12:35:43
Azimuth
Unknown
Elevation
Unknown
Doppler factor
Unknown
Orbital elements
Apogee altitude
1,625.879 km
Perigee altitude
1,502.792 km
Semi-major axis
7,942.472 km
Eccentricity
0.00775
Inclination
102.5433°
RAAN
267.7977°
Arg. of periapsis
87.173°
True anomaly
87.9941°
Mean anomaly
87.1069°
Eccentric anomaly
87.55046°
Mean motion
3.06626 °/min
Orbital period
117.41 mins
BSTAR
0.00017396
Loading maneuver chart data...
Computing Atmospheric mass density...
Loading historical data...
Loading historical data...
Loading historical data...
Loading historical data...
Loading historical data...
Loading historical data...
Loading historical data...

Documentation

Showing up to 5 results
|